• Join FlightAware (Why Join?)
  • Login
  • US Flag 
07:02AM EDT


 

Airport Tracker/Info


-or-


 

Live Flight TrackerFlight Track Log ✈ AWE1693 ✈ 11-May-2013 ✈ KDCA - KCLT

Flight Track Log - Related Links

Times and Time Zones

All times are in EDT time to prevent confusion due to time zone crossing. See the AWE1693 flight status page for this flight to view local times or setup timezone preferences in your user account.

Time Position Orientation Groundspeed Altitude Reporting Facility
EDT Latitude Longitude Course Direction KTS MPH feet Rate Location/Type
09:35AM 38.8167 -77.0333 201° Southwest 155 178 1,700  Level Potomac TRACON
09:36AM 38.7833 -77.0667 218° Southwest 218 251 3,100 2,280 Climbing Potomac TRACON
09:37AM 38.6308 -77.2696 222° Southwest  Level FlightAware Approximate
09:37AM 38.7500 -77.1333 237° Southwest 246 283 6,300  Level Potomac TRACON
09:38AM 38.5570 -77.3558 222° Southwest  Level FlightAware Approximate
09:39AM 38.4855 -77.4449 225° Southwest  Level FlightAware Approximate
09:39AM 38.6686 -77.2403 226° Southwest 252 290 10,800  Level Washington Center
09:40AM 38.4145 -77.5344 201° Southwest  Level FlightAware Approximate
09:40AM 38.6069 -77.3158 224° Southwest 272 313 11,800  Level Washington Center
09:41AM 38.5350 -77.4044 224° Southwest 323 372 13,500 2,160 Climbing Washington Center
09:42AM 38.4606 -77.4928 223° Southwest 357 411 16,200 2,160 Climbing Washington Center
09:43AM 38.3925 -77.5758 224° Southwest 368 423 17,900 1,680 Climbing Washington Center
09:44AM 38.3239 -77.6825 231° Southwest 386 444 19,600 1,980 Climbing Washington Center
09:45AM 38.2511 -77.7917 230° Southwest 397 457 21,800 1,980 Climbing Washington Center
09:46AM 38.1825 -77.8978 231° Southwest 397 457 23,600 1,080 Climbing Washington Center
09:47AM 38.1114 -78.0092 231° Southwest 402 463 24,000 180 Climbing Washington Center
09:48AM 38.0381 -78.1228 231° Southwest 412 474 24,000  Level Washington Center
09:49AM 37.9650 -78.2308 229° Southwest 394 453 24,000  Level Washington Center
09:50AM 37.9044 -78.3183 229° Southwest 364 419 24,000  Level Washington Center
09:51AM 37.8400 -78.4081 228° Southwest 352 405 24,000  Level Washington Center
09:52AM 37.7836 -78.4900 229° Southwest 347 399 24,000  Level Washington Center
09:53AM 37.7211 -78.5822 229° Southwest 347 399 24,000  Level Washington Center
09:54AM 37.6583 -78.6714 228° Southwest 347 399 24,000  Level Washington Center
09:55AM 37.5867 -78.7708 228° Southwest 347 399 24,000  Level Washington Center
09:56AM 37.5239 -78.8597 228° Southwest 347 399 24,000  Level Washington Center
09:57AM 37.4611 -78.9461 228° Southwest 347 399 24,000  Level Washington Center
09:58AM 37.3958 -79.0372 228° Southwest 347 399 24,000  Level Washington Center
09:59AM 37.3308 -79.1258 227° Southwest 347 399 24,000  Level Washington Center
10:00AM 37.2675 -79.2169 229° Southwest 353 406 24,000  Level Washington Center
10:01AM 37.1944 -79.2839 216° Southwest 358 412 24,000  Level Washington Center
10:02AM 37.1108 -79.3553 214° Southwest 358 412 24,000  Level Washington Center
10:03AM 37.0208 -79.4289 213° Southwest 376 433 24,000  Level Washington Center
10:04AM 36.9331 -79.5025 214° Southwest 387 445 24,000  Level Washington Center
10:05AM 36.8344 -79.5831 213° Southwest 392 451 24,000  Level Washington Center
10:06AM 36.7442 -79.6564 213° Southwest 392 451 24,000  Level Washington Center
10:07AM 36.6542 -79.7319 214° Southwest 392 451 24,000  Level Washington Center
10:08AM 36.5619 -79.8044 212° Southwest 392 451 24,000 -480 Level Washington Center
10:10AM 36.3903 -79.9406 213° Southwest 414 476 22,700 -720 Descending Atlanta Center
10:11AM 36.3031 -80.0119 213° Southwest 402 463 22,000 -600 Descending Atlanta Center
10:12AM 36.2178 -80.0883 216° Southwest 392 451 21,600 -1,200 Descending Atlanta Center
10:13AM 36.1225 -80.1675 214° Southwest 387 445 19,600 -1,800 Descending Atlanta Center
10:14AM 36.0472 -80.2303 214° Southwest 362 417 18,000 -1,740 Descending Atlanta Center
10:14AM 36.0047 -80.2733 219° Southwest 316 364 16,800 -1,860 Descending Atlanta Center
10:15AM 35.9700 -80.3031 215° Southwest 319 367 15,900 -1,740 Descending Atlanta Center
10:16AM 35.9050 -80.3572 214° Southwest 327 376 14,500 -1,500 Descending Atlanta Center
10:17AM 35.8358 -80.4169 215° Southwest 320 368 13,100 -1,260 Descending Atlanta Center
10:18AM 35.7728 -80.4683 213° Southwest 303 349 12,000 -1,080 Descending Atlanta Center
10:19AM 35.7247 -80.5394 230° Southwest 287 330 11,000 -540 Descending Atlanta Center
10:20AM 35.6872 -80.6203 240° Southwest 272 313 11,000 -960 Level Atlanta Center
10:21AM 35.6444 -80.7269 244° Southwest 267 307 8,900 -1,800 Descending Atlanta Center
10:22AM 35.6186 -80.7789 239° Southwest 272 313 7,400 -1,560 Descending Atlanta Center
10:23AM 35.5872 -80.8517 242° Southwest 272 313 6,200 -1,140 Descending Atlanta Center
10:23AM 35.5753 -80.8803 243° Southwest 254 292 6,000 -240 Descending Atlanta Center
10:24AM 35.5450 -80.9197 227° Southwest 265 305 6,000 -300 Level Atlanta Center
10:24AM 35.5289 -80.9383 223° Southwest 253 291 5,700 -1,500 Descending Atlanta Center
10:25AM 35.4694 -80.9814 211° Southwest 252 290 4,100 -840 Descending Atlanta Center
10:26AM 35.3986 -80.9839 182° South 231 266 4,000 -120 Descending Atlanta Center